This is the latest recevied weather packets stored in our database for station/object KO6TH-15. If no packets are shown the sender has not sent any weather packets the latest 10 day(s).
| Time | Temp. | Humidity | Pressure | Rain* | Wind** | Luminosity | Snow |
|---|---|---|---|---|---|---|---|
| 1777760420 | 26.11° C | 45% | 0 hPa | 0 mm | - | - | - |
| 1777759790 | 25° C | 47% | 0 hPa | 0 mm | - | - | - |
| 1777759160 | 25.56° C | 46% | 0 hPa | 0 mm | - | - | - |
| 1777758560 | 25° C | 44% | 0 hPa | 0 mm | - | - | - |
| 1777757930 | 25° C | 43% | 0 hPa | 0 mm | - | - | - |
| 1777757300 | 26.11° C | 41% | 0 hPa | 0 mm | - | - | - |
| 1777756670 | 26.11° C | 42% | 0 hPa | 0 mm | - | - | - |
| 1777756040 | 26.11° C | 41% | 0 hPa | 0 mm | - | - | - |
| 1777755410 | 25.56° C | 41% | 0 hPa | 0 mm | - | - | - |
| 1777754780 | 25° C | 44% | 0 hPa | 0 mm | - | - | - |
| 1777754150 | 24.44° C | 40% | 0 hPa | 0 mm | - | - | - |
| 1777753520 | 25° C | 44% | 0 hPa | 0 mm | - | - | - |
| 1777752920 | 24.44° C | 42% | 0 hPa | 0 mm | - | - | - |
| 1777752290 | 23.89° C | 42% | 0 hPa | 0 mm | - | - | - |
| 1777751660 | 24.44° C | 44% | 0 hPa | 0 mm | - | - | - |
| 1777751060 | 23.89° C | 47% | 0 hPa | 0 mm | - | - | - |
| 1777750430 | 23.33° C | 49% | 0 hPa | 0 mm | - | - | - |
| 1777749800 | 22.78° C | 56% | 0 hPa | 0 mm | - | - | - |
| 1777749170 | 21.11° C | 60% | 0 hPa | 0 mm | - | - | - |
| 1777748589 | 20° C | 62% | 0 hPa | 0 mm | - | - | - |
| 1777748540 | 20° C | 62% | 0 hPa | 0 mm | - | - | - |
| 1777747940 | 19.44° C | 64% | 0 hPa | 0 mm | - | - | - |
| 1777747310 | 19.44° C | 66% | 0 hPa | 0 mm | - | - | - |
| 1777746710 | 18.89° C | 69% | 0 hPa | 0 mm | - | - | - |
| 1777746080 | 18.89° C | 68% | 0 hPa | 0 mm | - | - | - |
* Rain latest hour (hover to see other rain measurements)
** Current wind speed in m/s (hover to see current wind gust speed)